This is the latest recevied weather packets stored in our database for station/object WA4IKQ. If no packets are shown the sender has not sent any weather packets the latest 10 day(s).
| Time | Temp. | Humidity | Pressure | Rain* | Wind** | Luminosity | Snow |
|---|---|---|---|---|---|---|---|
| 1787422861 | 34.44° C | 50% | 1015.8 hPa | 0 mm | 0 m/s | - | - |
| 1787422360 | 34.44° C | 50% | 1016 hPa | 0 mm | 1.34 m/s, 142° | - | - |
| 1787422259 | 34.44° C | 50% | 1016 hPa | 0 mm | 1.34 m/s, 142° | - | - |
| 1787422053 | 34.44° C | 50% | 1015.9 hPa | 0 mm | 0.45 m/s, 169° | - | - |
| 1787421959 | 34.44° C | 50% | 1015.9 hPa | 0 mm | 0.45 m/s, 169° | - | - |
| 1787421437 | 34.44° C | 50% | 1016.1 hPa | 0 mm | 1.79 m/s, 160° | - | - |
| 1787421360 | 34.44° C | 50% | 1016.1 hPa | 0 mm | 1.79 m/s, 160° | - | - |
| 1787421155 | 34.44° C | 50% | 1016.2 hPa | 0 mm | 2.68 m/s, 184° | - | - |
| 1787421060 | 34.44° C | 50% | 1016.2 hPa | 0 mm | 2.68 m/s, 184° | - | - |
| 1787420836 | 33.89° C | 51% | 1016.2 hPa | 0 mm | 3.13 m/s, 197° | - | - |
| 1787420760 | 33.89° C | 51% | 1016.2 hPa | 0 mm | 3.13 m/s, 197° | - | - |
| 1787420581 | 33.89° C | 51% | 1016.4 hPa | 0 mm | 1.34 m/s, 203° | - | - |
| 1787420458 | 33.89° C | 51% | 1016.4 hPa | 0 mm | 1.34 m/s, 203° | - | - |
| 1787420232 | 33.89° C | 53% | 1016.5 hPa | 0 mm | 2.68 m/s, 162° | - | - |
| 1787420163 | 33.89° C | 53% | 1016.5 hPa | 0 mm | 2.68 m/s, 162° | - | - |
| 1787419936 | 33.33° C | 52% | 1016.4 hPa | 0 mm | 0.89 m/s, 197° | - | - |
| 1787419859 | 33.33° C | 52% | 1016.4 hPa | 0 mm | 0.89 m/s, 197° | - | - |
| 1787419631 | 33.33° C | 53% | 1016.4 hPa | 0 mm | 1.34 m/s, 150° | - | - |
| 1787419559 | 33.33° C | 53% | 1016.4 hPa | 0 mm | 1.34 m/s, 150° | - | - |
| 1787419318 | 33.33° C | 53% | 1016.4 hPa | 0 mm | 0.45 m/s, 75° | - | - |
| 1787419259 | 33.33° C | 53% | 1016.4 hPa | 0 mm | 0.45 m/s, 75° | - | - |
| 1787418521 | 32.78° C | 54% | 1016.6 hPa | 0 mm | 1.34 m/s, 150° | - | - |
| 1787418357 | 32.78° C | 54% | 1016.6 hPa | 0 mm | 1.34 m/s, 150° | - | - |
| 1787418141 | 32.78° C | 54% | 1016.6 hPa | 0 mm | 1.79 m/s, 217° | - | - |
| 1787418058 | 32.78° C | 54% | 1016.6 hPa | 0 mm | 1.79 m/s, 217° | - | - |
* Rain latest hour (hover to see other rain measurements)
** Current wind speed in m/s (hover to see current wind gust speed)